This is the latest recevied weather packets stored in our database for station/object K5BOU. If no packets are shown the sender has not sent any weather packets the latest 10 day(s).
| Time | Temp. | Humidity | Pressure | Rain* | Wind** | Luminosity | Snow |
|---|---|---|---|---|---|---|---|
| 1788272926 | 27.78° C | 95% | 1014.5 hPa | 0 mm | - | 151 W/m² | - |
| 1788272624 | 27.78° C | 96% | 1014.6 hPa | 0 mm | - | 126 W/m² | - |
| 1788272320 | 27.22° C | 98% | 1014.6 hPa | 0 mm | - | 115 W/m² | - |
| 1788272015 | 27.22° C | 99% | 1014.7 hPa | 0 mm | - | 94 W/m² | - |
| 1788271714 | 27.22° C | 99% | 1014.9 hPa | 0 mm | - | 90 W/m² | - |
| 1788271412 | 27.22° C | 99% | 1015 hPa | 0 mm | - | 81 W/m² | - |
| 1788271107 | 26.67° C | 99% | 1014.9 hPa | 0 mm | - | 77 W/m² | - |
| 1788270802 | 26.67° C | 99% | 1014.7 hPa | 0 mm | - | 92 W/m² | - |
| 1788270499 | 26.67° C | 99% | 1014.8 hPa | 0 mm | - | 84 W/m² | - |
| 1788270193 | 26.11° C | 99% | 1014.8 hPa | 0 mm | - | 81 W/m² | - |
| 1788269887 | 26.11° C | 99% | 1014.9 hPa | 0 mm | - | 58 W/m² | - |
| 1788269586 | 26.11° C | 99% | 1014.7 hPa | 0 mm | - | 58 W/m² | - |
| 1788269285 | 26.11° C | 99% | 1014.8 hPa | 0 mm | - | 55 W/m² | - |
| 1788268980 | 25.56° C | 99% | 1014.7 hPa | 0 mm | - | 49 W/m² | - |
| 1788268674 | 25.56° C | 99% | 1014.6 hPa | 0 mm | - | 49 W/m² | - |
| 1788268374 | 25.56° C | 99% | 1014.7 hPa | 0 mm | - | 41 W/m² | - |
| 1788268069 | 25.56° C | 99% | 1014.6 hPa | 0 mm | - | 39 W/m² | - |
| 1788267769 | 25.56° C | 99% | 1014.4 hPa | 0 mm | - | 36 W/m² | - |
| 1788267467 | 25.56° C | 99% | 1014.5 hPa | 0 mm | - | 37 W/m² | - |
| 1788267161 | 25° C | 99% | 1014.3 hPa | 0 mm | - | 40 W/m² | - |
| 1788266856 | 25° C | 99% | 1014 hPa | 0 mm | - | 37 W/m² | - |
| 1788266551 | 25° C | 99% | 1014.1 hPa | 0 mm | - | 34 W/m² | - |
| 1788266250 | 25° C | 99% | 1013.9 hPa | 0 mm | - | 26 W/m² | - |
| 1788265945 | 25° C | 99% | 1013.9 hPa | 0 mm | - | 20 W/m² | - |
| 1788265644 | 24.44° C | 99% | 1014.1 hPa | 0 mm | - | 12 W/m² | - |
* Rain latest hour (hover to see other rain measurements)
** Current wind speed in m/s (hover to see current wind gust speed)